Tracking 27112 objects as of 26-Mar-2023
HD Live streaming from Space Station
objects crossing your sky now

WESTFORD NEEDLES

Track WESTFORD NEEDLES now!
10-day predictions
WESTFORD NEEDLES is classified as:


NORAD ID: 628
Int'l Code: 1963-014F
Perigee: 3,627.5 km
Apogee: 3,704.5 km
Inclination: 87.3 °
Period: 166.8 minutes
Semi major axis: 10037 km
RCS: 0.4773 m2 (medium)
Launch date: May 9, 1963
Source: United States (US)
Launch site: AIR FORCE WESTERN TEST RANGE (AFWTR)
Your satellite tracking list
Your tracking list is empty




NASA's NSSDC Master Catalog

Two Line Element Set (TLE):
1   628U 63014F   23085.10261398  .00000003  00000-0  00000+0 0  9990
2   628  87.3226 315.6358 0038341 185.6736 174.3686  8.63367042887470
Source of the keplerian elements: AFSPC